7 * 24
多渠道服务支持
NAVSTAR 74(USA 262)是美国太空军运营的GPS导航卫星,于2015年7月15日发射升空,由美国波音公司制造。作为GPS现代化进程中的重要卫星,它运行在中地球轨道,设计寿命12年,旨在逐步替换老旧的GPS II系列卫星,为全球用户提供更精准的定位、导航与授时服务,同时增强了抗干扰能力,提升了GPS系统整体的稳定性与可靠性,目前仍在轨正常运行。
美国
(US)
| 数据来源 | 国际轨道数据 |
| 星历时间: | 2026-03-13T19:48:15+0800 12小时前 查看轨道信息 |
| 半长轴: | 26560.569km |
| 偏心率: | 0.0114676 |
| 轨道倾角: | 54.058° |
| 近地点辐角 | 29.170° |
| 升交点赤经 | 271.030° |
| 平近点角 | 331.492° |
| 近地点: | 19877.846km |
| 远地点: | 20487.018km |
| 周期: | 717.986分钟 |
| 每日圈数: | 2.005611 |